Simultaneous Nadir Overpasses (SNOs) Predictions

Prediction of SNOs between AQUA and NOAA-19 Satellite Orbit:

Table of predicted SNOs for the next 14.0 days since TLE Epoch: 3/14/2015
Index Date (AQUA) Time (AQUA) Lat,Lon (AQUA) SZA (AQUA ) Date (NOAA-19) Time (NOAA-19) Lat,Lon (NOAA-19) SZA (NOAA-19 ) Distance(km) Time Diff (sec)
1 03/16/2015 03:18:16 79.66, 102.50 82.91 03/16/2015 03:18:00 79.66, 102.41 82.93 1.95 16
2 03/18/2015 08:02:34 79.73, 30.91 82.14 03/18/2015 08:01:30 79.73, 30.95 82.16 0.90 64
3 03/18/2015 08:51:56 -79.58,-160.35 98.11 03/18/2015 08:52:28 -79.58,-160.40 98.11 1.13 32
4 03/20/2015 13:36:14 -79.67, 127.95 98.85 03/20/2015 13:35:59 -79.66, 127.98 98.85 0.79 15
5 03/22/2015 18:20:32 -79.77, 56.10 99.57 03/22/2015 18:19:31 -79.78, 56.00 99.53 2.03 61
6 03/22/20
